This is the latest recevied weather packets stored in our database for station/object K4AMF. If no packets are shown the sender has not sent any weather packets the latest 10 day(s).
| Time | Temp. | Humidity | Pressure | Rain* | Wind** | Luminosity | Snow |
|---|---|---|---|---|---|---|---|
| 1777832328 | 22.22° C | 54% | 1019.9 hPa | 0 mm | - | 577 W/m² | - |
| 1777832026 | 22.78° C | 55% | 1020 hPa | 0 mm | - | 323 W/m² | - |
| 1777831722 | 22.22° C | 56% | 1019.9 hPa | 0 mm | - | 790 W/m² | - |
| 1777831420 | 22.78° C | 57% | 1020 hPa | 0 mm | - | 766 W/m² | - |
| 1777831116 | 22.22° C | 58% | 1020.1 hPa | 0 mm | - | 759 W/m² | - |
| 1777830814 | 22.22° C | 56% | 1020.2 hPa | 0 mm | - | 278 W/m² | - |
| 1777830509 | 22.22° C | 57% | 1020.2 hPa | 0 mm | - | 698 W/m² | - |
| 1777830208 | 22.78° C | 56% | 1020.2 hPa | 0 mm | - | 758 W/m² | - |
| 1777829903 | 22.78° C | 56% | 1020.1 hPa | 0 mm | - | 747 W/m² | - |
| 1777829599 | 22.22° C | 56% | 1020.2 hPa | 0 mm | - | 737 W/m² | - |
| 1777829296 | 22.22° C | 55% | 1020.3 hPa | 0 mm | - | 721 W/m² | - |
| 1777828994 | 22.22° C | 55% | 1020.4 hPa | 0 mm | - | 773 W/m² | - |
| 1777828689 | 22.22° C | 53% | 1020.4 hPa | 0 mm | - | 789 W/m² | - |
| 1777828386 | 22.22° C | 55% | 1020.2 hPa | 0 mm | - | 776 W/m² | - |
| 1777828084 | 21.67° C | 57% | 1020.6 hPa | 0 mm | - | 189 W/m² | - |
| 1777827780 | 21.67° C | 56% | 1020.6 hPa | 0 mm | - | 522 W/m² | - |
| 1777827477 | 21.67° C | 59% | 1020.8 hPa | 0 mm | - | 269 W/m² | - |
| 1777827175 | 21.67° C | 59% | 1020.7 hPa | 0 mm | - | 852 W/m² | - |
| 1777826870 | 22.22° C | 57% | 1020.7 hPa | 0 mm | - | 817 W/m² | - |
| 1777826569 | 22.22° C | 57% | 1020.7 hPa | 0 mm | - | 840 W/m² | - |
| 1777826264 | 21.67° C | 60% | 1020.9 hPa | 0 mm | - | 805 W/m² | - |
| 1777825962 | 21.67° C | 61% | 1020.7 hPa | 0 mm | - | 248 W/m² | - |
| 1777825659 | 21.11° C | 62% | 1020.9 hPa | 0 mm | - | 856 W/m² | - |
| 1777825357 | 21.11° C | 67% | 1020.9 hPa | 0 mm | - | 230 W/m² | - |
| 1777825053 | 21.11° C | 68% | 1020.9 hPa | 0 mm | - | 904 W/m² | - |
* Rain latest hour (hover to see other rain measurements)
** Current wind speed in m/s (hover to see current wind gust speed)